Change the Weather History Date:

Wednesday, January 22, 2014

  Actual Average (KP67) Record (KP67)
Temperature  
Mean Temperature 4 °F -  
Max Temperature 15 °F 13 °F 24 °F (1998)
Min Temperature -7 °F 0 °F -7 °F (1997)
Degree Days  
Heating Degree Days 61    
Moisture  
Dew Point -8 °F    
Average Humidity 69    
Maximum Humidity 92    
Minimum Humidity 55    
Precipitation  
Precipitation 0.00 in - - ()
Sea Level Pressure  
Sea Level Pressure 30.35 in    
Wind  
Wind Speed 16 mph (NNW)    
Max Wind Speed 32 mph    
Max Gust Speed 36 mph    
Visibility 7 miles    
Events      
Averages and records for this station are not official NWS values.
T = Trace of Precipitation, MM = Missing Value Source: NWS Daily Summary

Daily Weather History Graph

Daily Weather History Graph

Search for Another Location

Airport or City:

Trip Planner

Search our weather history database for the weather conditions in past years. The results will help you decide how hot, cold, wet, or windy it might be!

Date:

Astronomy

Jan. 22, 2014 Rise Set
Actual Time 8:03 AM CST 5:20 PM CST
Civil Twilight 7:30 AM CST 5:53 PM CST
Nautical Twilight 6:54 AM CST 6:30 PM CST
Astronomical Twilight 6:18 AM CST 7:06 PM CST
Moon No Moon Rise 10:42 AM CST (1/22)
Length of Visible Light 10h 22m
Length of Day
9h 16m
Waning Gibbous, 65% of the Moon is Illuminated
Jan 22
Waning Gibbous
Jan 23
Last Quarter
Jan 30
New
Feb 6
First Quarter
Feb 14
Full

Hourly Weather History & Observations

Time (CST) Temp. Windchill Dew Point Humidity Pressure Visibility Wind Dir Wind Speed Gust Speed Precip Events Conditions
12:15 AM 8.6 °F -3.7 °F 3.2 °F 79% 30.06 in 10.0 mi West 8.1 mph - 0.00 in   Clear
12:35 AM 5.0 °F -6.9 °F 1.4 °F 85% 30.06 in 10.0 mi West 6.9 mph - 0.00 in   Clear
12:55 AM 5.0 °F -8.1 °F 1.4 °F 85% 30.06 in 10.0 mi West 8.1 mph - 0.00 in   Scattered Clouds
1:15 AM 8.6 °F -2.6 °F 3.2 °F 79% 30.05 in 10.0 mi West 6.9 mph - 0.00 in   Overcast
1:35 AM 10.4 °F -2.4 °F 5.0 °F 79% 30.05 in 10.0 mi NW 9.2 mph - 0.00 in   Overcast
1:55 AM 12.2 °F -3.1 °F 5.0 °F 73% 30.05 in 10.0 mi NW 13.8 mph - 0.00 in   Overcast
2:15 AM 12.2 °F -1.8 °F 5.0 °F 73% 30.05 in 10.0 mi NW 11.5 mph - 0.00 in   Overcast
2:35 AM 12.2 °F -1.0 °F 5.0 °F 73% 30.04 in 10.0 mi WNW 10.4 mph - 0.00 in   Overcast
2:55 AM 12.2 °F -1.0 °F 6.8 °F 79% 30.02 in 10.0 mi West 10.4 mph - 0.00 in   Overcast
3:15 AM 12.2 °F -2.5 °F 6.8 °F 79% 30.02 in 10.0 mi West 12.7 mph - 0.00 in   Overcast
3:35 AM 12.2 °F -3.1 °F 8.6 °F 85% 30.03 in 10.0 mi West 13.8 mph - 0.00 in   Overcast
3:55 AM 12.2 °F -3.1 °F 8.6 °F 85% 30.03 in 10.0 mi West 13.8 mph - 0.00 in   Mostly Cloudy
4:15 AM 14.0 °F -1.4 °F 8.6 °F 79% 30.03 in 10.0 mi WNW 15.0 mph - 0.00 in   Overcast
4:35 AM 14.0 °F -0.8 °F 10.4 °F 86% 30.04 in 5.0 mi NNW 13.8 mph - 0.00 in   Overcast
4:55 AM 15.8 °F 0.3 °F 10.4 °F 79% 30.05 in 2.5 mi NNW 16.1 mph 24.2 mph 0.00 in   Overcast
5:15 AM 12.2 °F -7.9 °F 10.4 °F 92% 30.08 in 1.0 mi North 25.3 mph 31.1 mph 0.00 in   Overcast
5:35 AM 10.4 °F -8.6 °F 5.0 °F 79% 30.10 in 1.5 mi North 20.7 mph 28.8 mph 0.00 in   Overcast
5:55 AM 8.6 °F -12.3 °F 3.2 °F 79% 30.12 in 1.5 mi North 24.2 mph 28.8 mph 0.00 in   Overcast
6:15 AM 8.6 °F -10.5 °F 3.2 °F 79% 30.14 in 3.0 mi North 19.6 mph - 0.00 in   Overcast
6:35 AM 8.6 °F -14.5 °F 3.2 °F 79% 30.15 in 0.5 mi North 31.1 mph 34.5 mph 0.00 in   Overcast
6:55 AM 5.0 °F -16.7 °F -0.4 °F 78% 30.18 in 0.5 mi North 23.0 mph 32.2 mph 0.00 in   Overcast
7:15 AM 3.2 °F -22.2 °F -4.0 °F 72% 30.20 in 0.5 mi North 32.2 mph 35.7 mph 0.00 in   Overcast
7:35 AM -0.4 °F -25.2 °F -7.6 °F 72% 30.22 in 0.8 mi North 26.5 mph 33.4 mph 0.00 in   Overcast
7:55 AM -0.4 °F -25.2 °F -7.6 °F 72% 30.23 in 0.5 mi North 26.5 mph 32.2 mph 0.00 in   Overcast
8:15 AM -2.2 °F -24.7 °F -9.4 °F 71% 30.25 in 1.0 mi North 19.6 mph 32.2 mph 0.00 in   Overcast
8:35 AM -2.2 °F -25.2 °F -9.4 °F 71% 30.27 in 1.2 mi North 20.7 mph 28.8 mph 0.00 in   Overcast
8:55 AM -2.2 °F -27.1 °F -9.4 °F 71% 30.28 in 0.8 mi North 25.3 mph 32.2 mph 0.00 in   Overcast
9:15 AM -4.0 °F -29.1 °F - N/A% 30.30 in 1.0 mi North 24.2 mph 29.9 mph 0.00 in   Overcast
9:35 AM -4.0 °F -28.1 °F -11.2 °F 71% 30.32 in 2.5 mi North 21.9 mph 26.5 mph 0.00 in   Mostly Cloudy
9:55 AM -4.0 °F -29.1 °F -13.0 °F 65% 30.33 in 1.5 mi North 24.2 mph 32.2 mph 0.00 in   Overcast
10:15 AM -4.0 °F -30.9 °F -13.0 °F 65% 30.35 in 1.2 mi North 28.8 mph 33.4 mph 0.00 in   Mostly Cloudy
10:35 AM -4.0 °F -27.0 °F -13.0 °F 65% 30.37 in 1.0 mi North 19.6 mph 28.8 mph 0.00 in   Overcast
10:55 AM -4.0 °F -30.0 °F -13.0 °F 65% 30.38 in 1.8 mi North 26.5 mph 31.1 mph 0.00 in   Overcast
11:15 AM -4.0 °F -30.0 °F -13.0 °F 65% 30.39 in 2.0 mi North 26.5 mph 29.9 mph 0.00 in   Overcast
11:55 AM -4.0 °F -27.0 °F -13.0 °F 65% 30.40 in 5.0 mi North 19.6 mph 25.3 mph 0.00 in   Overcast
12:15 PM -4.0 °F -28.1 °F -13.0 °F 65% 30.41 in 5.0 mi NNW 21.9 mph 26.5 mph 0.00 in   Overcast
12:35 PM -4.0 °F -29.6 °F -13.0 °F 65% 30.41 in 4.0 mi North 25.3 mph 28.8 mph 0.00 in   Overcast
12:55 PM -4.0 °F -29.1 °F -13.0 °F 65% 30.41 in 4.0 mi NNW 24.2 mph 28.8 mph 0.00 in   Overcast
1:15 PM -2.2 °F -25.7 °F -13.0 °F 60% 30.42 in 5.0 mi NNW 21.9 mph 25.3 mph 0.00 in   Mostly Cloudy
1:35 PM -2.2 °F -25.7 °F -13.0 °F 60% 30.42 in 6.0 mi NNW 21.9 mph 27.6 mph 0.00 in   Overcast
1:55 PM -2.2 °F -27.1 °F -13.0 °F 60% 30.43 in 3.0 mi North 25.3 mph 31.1 mph 0.00 in   Mostly Cloudy
2:15 PM -2.2 °F -24.1 °F -13.0 °F 60% 30.43 in 7.0 mi NNW 18.4 mph - 0.00 in   Mostly Cloudy
2:35 PM -2.2 °F -25.7 °F -13.0 °F 60% 30.45 in 7.0 mi NNW 21.9 mph 28.8 mph 0.00 in   Mostly Cloudy
2:55 PM -2.2 °F -25.2 °F -13.0 °F 60% 30.45 in 10.0 mi North 20.7 mph 26.5 mph 0.00 in   Overcast
3:15 PM -0.4 °F -23.3 °F -13.0 °F 55% 30.46 in 10.0 mi NNW 21.9 mph - 0.00 in   Mostly Cloudy
3:35 PM -2.2 °F -24.1 °F -13.0 °F 60% 30.47 in 9.0 mi NNW 18.4 mph 27.6 mph 0.00 in   Mostly Cloudy
3:55 PM -2.2 °F -24.7 °F -13.0 °F 60% 30.49 in 10.0 mi NNW 19.6 mph - 0.00 in   Partly Cloudy
4:15 PM -4.0 °F -26.4 °F -13.0 °F 65% 30.49 in 10.0 mi NNW 18.4 mph - 0.00 in   Clear
4:35 PM -4.0 °F -24.5 °F -13.0 °F 65% 30.50 in 10.0 mi NNW 15.0 mph - 0.00 in   Clear
4:55 PM -4.0 °F -25.8 °F -13.0 °F 65% 30.52 in 10.0 mi NNW 17.3 mph - 0.00 in   Clear
5:15 PM -4.0 °F -25.2 °F -14.8 °F 60% 30.52 in 10.0 mi NNW 16.1 mph - 0.00 in   Clear
5:35 PM -5.8 °F -27.5 °F -14.8 °F 65% 30.53 in 10.0 mi NNW 16.1 mph - 0.00 in   Clear
5:55 PM -5.8 °F -25.2 °F -14.8 °F 65% 30.54 in 10.0 mi NW 12.7 mph - 0.00 in   Clear
6:15 PM -5.8 °F -26.8 °F -14.8 °F 65% 30.54 in 10.0 mi NNW 15.0 mph - 0.00 in   Clear
6:35 PM -5.8 °F -26.8 °F -14.8 °F 65% 30.56 in 10.0 mi NW 15.0 mph - 0.00 in   Clear
6:55 PM -5.8 °F -27.5 °F -14.8 °F 65% 30.56 in 10.0 mi NW 16.1 mph - 0.00 in   Clear
7:15 PM -5.8 °F -26.0 °F -14.8 °F 65% 30.57 in 10.0 mi NNW 13.8 mph - 0.00 in   Clear
7:35 PM -5.8 °F -26.8 °F -14.8 °F 65% 30.58 in 10.0 mi NW 15.0 mph - 0.00 in   Clear
7:55 PM -5.8 °F -26.0 °F -14.8 °F 65% 30.58 in 10.0 mi NNW 13.8 mph - 0.00 in   Clear
8:15 PM -5.8 °F -26.8 °F -14.8 °F 65% 30.59 in 10.0 mi NNW 15.0 mph - 0.00 in   Clear
8:35 PM -5.8 °F -26.8 °F -14.8 °F 65% 30.59 in 10.0 mi NNW 15.0 mph - 0.00 in   Clear
8:55 PM -5.8 °F -25.2 °F -14.8 °F 65% 30.60 in 10.0 mi NNW 12.7 mph - 0.00 in   Clear
9:15 PM -5.8 °F -24.4 °F -14.8 °F 65% 30.61 in 10.0 mi NW 11.5 mph - 0.00 in   Clear
9:35 PM -5.8 °F -25.2 °F -14.8 °F 65% 30.62 in 10.0 mi NW 12.7 mph - 0.00 in   Scattered Clouds
9:55 PM -5.8 °F -25.2 °F -14.8 °F 65% 30.62 in 10.0 mi NNW 12.7 mph - 0.00 in   Scattered Clouds
10:15 PM -5.8 °F -25.2 °F -14.8 °F 65% 30.63 in 10.0 mi NNW 12.7 mph - 0.00 in   Clear
10:35 PM -7.6 °F -27.5 °F -16.6 °F 65% 30.63 in 10.0 mi NW 12.7 mph - 0.00 in   Clear
10:55 PM -7.6 °F -25.7 °F -16.6 °F 65% 30.63 in 10.0 mi NW 10.4 mph - 0.00 in   Clear
11:15 PM -7.6 °F -25.7 °F -16.6 °F 65% 30.64 in 10.0 mi WNW 10.4 mph 16.1 mph 0.00 in   Clear
11:35 PM -7.6 °F -26.6 °F -16.6 °F 65% 30.65 in 10.0 mi WNW 11.5 mph - 0.00 in   Clear
11:55 PM -7.6 °F -28.3 °F -16.6 °F 65% 30.65 in 10.0 mi NW 13.8 mph - 0.00 in   Clear